Year,Month,Day,Hour,Minute,Value (Times are PST for temperature in C)
2019,07,12,00,00,15.70
2019,07,12,00,01,15.70
2019,07,12,00,02,15.70
2019,07,12,00,03,15.70
2019,07,12,00,04,15.60
2019,07,12,00,05,15.60
2019,07,12,00,06,15.60
2019,07,12,00,07,15.60
2019,07,12,00,08,15.50
2019,07,12,00,09,15.50
2019,07,12,00,10,15.50
2019,07,12,00,11,15.40
2019,07,12,00,12,15.40
2019,07,12,00,13,15.40
2019,07,12,00,14,15.40
2019,07,12,00,15,15.30
2019,07,12,00,16,15.30
2019,07,12,00,17,15.30
2019,07,12,00,18,15.30
2019,07,12,00,19,15.30
2019,07,12,00,20,15.20
2019,07,12,00,21,15.20
2019,07,12,00,22,15.20
2019,07,12,00,23,15.20
2019,07,12,00,24,15.20
2019,07,12,00,25,15.10
2019,07,12,00,26,15.10
2019,07,12,00,27,15.10
2019,07,12,00,28,15.10
2019,07,12,00,29,15.10
2019,07,12,00,30,15.00
2019,07,12,00,31,15.00
2019,07,12,00,32,15.00
2019,07,12,00,33,15.00
2019,07,12,00,34,14.90
2019,07,12,00,35,14.90
2019,07,12,00,36,14.90
2019,07,12,00,37,14.90
2019,07,12,00,38,14.90
2019,07,12,00,39,14.90
2019,07,12,00,40,14.80
2019,07,12,00,41,14.80
2019,07,12,00,42,14.80
2019,07,12,00,43,14.80
2019,07,12,00,44,14.80
2019,07,12,00,45,14.80
2019,07,12,00,46,14.80
2019,07,12,00,47,14.70
2019,07,12,00,48,14.70
2019,07,12,00,49,14.70
2019,07,12,00,50,14.70
2019,07,12,00,51,14.70
2019,07,12,00,52,14.70
2019,07,12,00,53,14.70
2019,07,12,00,54,14.60
2019,07,12,00,55,14.60
2019,07,12,00,56,14.60
2019,07,12,00,57,14.60
2019,07,12,00,58,14.60
2019,07,12,00,59,14.60
2019,07,12,01,00,14.60
2019,07,12,01,01,14.60
2019,07,12,01,02,14.60
2019,07,12,01,03,14.50
2019,07,12,01,04,14.50
2019,07,12,01,05,14.50
2019,07,12,01,06,14.50
2019,07,12,01,07,14.50
2019,07,12,01,08,14.50
2019,07,12,01,09,14.40
2019,07,12,01,10,14.40
2019,07,12,01,11,14.40
2019,07,12,01,12,14.40
2019,07,12,01,13,14.40
2019,07,12,01,14,14.40
2019,07,12,01,15,14.40
2019,07,12,01,16,14.40
2019,07,12,01,17,14.40
2019,07,12,01,18,14.30
2019,07,12,01,19,14.30
2019,07,12,01,20,14.30
2019,07,12,01,21,14.30
2019,07,12,01,22,14.30
2019,07,12,01,23,14.30
2019,07,12,01,24,14.30
2019,07,12,01,25,14.30
2019,07,12,01,26,14.30
2019,07,12,01,27,14.30
2019,07,12,01,28,14.30
2019,07,12,01,29,14.20
2019,07,12,01,30,14.20
2019,07,12,01,31,14.20
2019,07,12,01,32,14.20
2019,07,12,01,33,14.20
2019,07,12,01,34,14.20
2019,07,12,01,35,14.20
2019,07,12,01,36,14.20
2019,07,12,01,37,14.20
2019,07,12,01,38,14.20
2019,07,12,01,39,14.20
2019,07,12,01,40,14.20
2019,07,12,01,41,14.20
2019,07,12,01,42,14.20
2019,07,12,01,43,14.20
2019,07,12,01,44,14.20
2019,07,12,01,45,14.20
2019,07,12,01,46,14.20
2019,07,12,01,47,14.20
2019,07,12,01,48,14.20
2019,07,12,01,49,14.20
2019,07,12,01,50,14.20
2019,07,12,01,51,14.20
2019,07,12,01,52,14.20
2019,07,12,01,53,14.10
2019,07,12,01,54,14.10
2019,07,12,01,55,14.10
2019,07,12,01,56,14.10
2019,07,12,01,57,14.10
2019,07,12,01,58,14.10
2019,07,12,01,59,14.10
2019,07,12,02,00,14.10
2019,07,12,02,01,14.10
2019,07,12,02,02,14.10
2019,07,12,02,03,14.00
2019,07,12,02,04,14.00
2019,07,12,02,05,14.00
2019,07,12,02,06,14.00
2019,07,12,02,07,14.00
2019,07,12,02,08,14.00
2019,07,12,02,09,14.00
2019,07,12,02,10,14.00
2019,07,12,02,11,14.00
2019,07,12,02,12,14.00
2019,07,12,02,13,14.00
2019,07,12,02,14,14.00
2019,07,12,02,15,13.90
2019,07,12,02,16,13.90
2019,07,12,02,17,13.90
2019,07,12,02,18,13.90
2019,07,12,02,19,13.90
2019,07,12,02,20,13.90
2019,07,12,02,21,13.90
2019,07,12,02,22,13.90
2019,07,12,02,23,13.90
2019,07,12,02,24,13.90
2019,07,12,02,25,13.90
2019,07,12,02,26,13.90
2019,07,12,02,27,13.90
2019,07,12,02,28,13.90
2019,07,12,02,29,13.90
2019,07,12,02,30,13.90
2019,07,12,02,31,13.90
2019,07,12,02,32,13.90
2019,07,12,02,33,13.90
2019,07,12,02,34,13.80
2019,07,12,02,35,13.80
2019,07,12,02,36,13.80
2019,07,12,02,37,13.80
2019,07,12,02,38,13.80
2019,07,12,02,39,13.80
2019,07,12,02,40,13.80
2019,07,12,02,41,13.80
2019,07,12,02,42,13.80
2019,07,12,02,43,13.70
2019,07,12,02,44,13.70
2019,07,12,02,45,13.70
2019,07,12,02,46,13.70
2019,07,12,02,47,13.60
2019,07,12,02,48,13.60
2019,07,12,02,49,13.60
2019,07,12,02,50,13.50
2019,07,12,02,51,13.50
2019,07,12,02,52,13.50
2019,07,12,02,53,13.40
2019,07,12,02,54,13.40
2019,07,12,02,55,13.40
2019,07,12,02,56,13.40
2019,07,12,02,57,13.40
2019,07,12,02,58,13.40
2019,07,12,02,59,13.30
2019,07,12,03,00,13.30
2019,07,12,03,01,13.30
2019,07,12,03,02,13.30
2019,07,12,03,03,13.30
2019,07,12,03,04,13.30
2019,07,12,03,05,13.30
2019,07,12,03,06,13.30
2019,07,12,03,07,13.30
2019,07,12,03,08,13.30
2019,07,12,03,09,13.30
2019,07,12,03,10,13.20
2019,07,12,03,11,13.20
2019,07,12,03,12,13.20
2019,07,12,03,13,13.20
2019,07,12,03,14,13.20
2019,07,12,03,15,13.10
2019,07,12,03,16,13.10
2019,07,12,03,17,13.10
2019,07,12,03,18,13.10
2019,07,12,03,19,13.10
2019,07,12,03,20,13.10
2019,07,12,03,21,13.10
2019,07,12,03,22,13.10
2019,07,12,03,23,13.00
2019,07,12,03,24,13.00
2019,07,12,03,25,13.00
2019,07,12,03,26,13.00
2019,07,12,03,27,12.90
2019,07,12,03,28,12.90
2019,07,12,03,29,12.90
2019,07,12,03,30,12.90
2019,07,12,03,31,12.90
2019,07,12,03,32,12.90
2019,07,12,03,33,12.80
2019,07,12,03,34,12.80
2019,07,12,03,35,12.80
2019,07,12,03,36,12.80
2019,07,12,03,37,12.80
2019,07,12,03,38,12.80
2019,07,12,03,39,12.80
2019,07,12,03,40,12.80
2019,07,12,03,41,12.80
2019,07,12,03,42,12.80
2019,07,12,03,43,12.80
2019,07,12,03,44,12.80
2019,07,12,03,45,12.80
2019,07,12,03,46,12.70
2019,07,12,03,47,12.70
2019,07,12,03,48,12.70
2019,07,12,03,49,12.70
2019,07,12,03,50,12.70
2019,07,12,03,51,12.70
2019,07,12,03,52,12.70
2019,07,12,03,53,12.70
2019,07,12,03,54,12.70
2019,07,12,03,55,12.70
2019,07,12,03,56,12.70
2019,07,12,03,57,12.70
2019,07,12,03,58,12.70
2019,07,12,03,59,12.70
2019,07,12,04,00,12.70
2019,07,12,04,01,12.70
2019,07,12,04,02,12.70
2019,07,12,04,03,12.70
2019,07,12,04,04,12.70
2019,07,12,04,05,12.70
2019,07,12,04,06,12.70
2019,07,12,04,07,12.70
2019,07,12,04,08,12.80
2019,07,12,04,09,12.80
2019,07,12,04,10,12.80
2019,07,12,04,11,12.80
2019,07,12,04,12,12.80
2019,07,12,04,13,12.80
2019,07,12,04,14,12.80
2019,07,12,04,15,12.80
2019,07,12,04,16,12.80
2019,07,12,04,17,12.80
2019,07,12,04,18,12.80
2019,07,12,04,19,12.80
2019,07,12,04,20,12.80
2019,07,12,04,21,12.80
2019,07,12,04,22,12.80
2019,07,12,04,23,12.80
2019,07,12,04,24,12.80
2019,07,12,04,25,12.80
2019,07,12,04,26,12.80
2019,07,12,04,27,12.80
2019,07,12,04,28,12.80
2019,07,12,04,29,12.80
2019,07,12,04,30,12.80
2019,07,12,04,31,12.80
2019,07,12,04,32,12.80
2019,07,12,04,33,12.80
2019,07,12,04,34,12.80
2019,07,12,04,35,12.80
2019,07,12,04,36,12.80
2019,07,12,04,37,12.80
2019,07,12,04,38,12.70
2019,07,12,04,39,12.70
2019,07,12,04,40,12.70
2019,07,12,04,41,12.70
2019,07,12,04,42,12.70
2019,07,12,04,43,12.70
2019,07,12,04,44,12.70
2019,07,12,04,45,12.60
2019,07,12,04,46,12.60
2019,07,12,04,47,12.60
2019,07,12,04,48,12.60
2019,07,12,04,49,12.50
2019,07,12,04,50,12.50
2019,07,12,04,51,12.50
2019,07,12,04,52,12.50
2019,07,12,04,53,12.40
2019,07,12,04,54,12.40
2019,07,12,04,55,12.40
2019,07,12,04,56,12.40
2019,07,12,04,57,12.40
2019,07,12,04,58,12.30
2019,07,12,04,59,12.30
2019,07,12,05,00,12.30
2019,07,12,05,01,12.30
2019,07,12,05,02,12.30
2019,07,12,05,03,12.40
2019,07,12,05,04,12.40
2019,07,12,05,05,12.40
2019,07,12,05,06,12.40
2019,07,12,05,07,12.40
2019,07,12,05,08,12.40
2019,07,12,05,09,12.40
2019,07,12,05,10,12.50
2019,07,12,05,11,12.50
2019,07,12,05,12,12.50
2019,07,12,05,13,12.50
2019,07,12,05,14,12.50
2019,07,12,05,15,12.50
2019,07,12,05,16,12.50
2019,07,12,05,17,12.50
2019,07,12,05,18,12.40
2019,07,12,05,19,12.40
2019,07,12,05,20,12.40
2019,07,12,05,21,12.40
2019,07,12,05,22,12.30
2019,07,12,05,23,12.30
2019,07,12,05,24,12.30
2019,07,12,05,25,12.30
2019,07,12,05,26,12.30
2019,07,12,05,27,12.30
2019,07,12,05,28,12.30
2019,07,12,05,29,12.20
2019,07,12,05,30,12.20
2019,07,12,05,31,12.20
2019,07,12,05,32,12.20
2019,07,12,05,33,12.20
2019,07,12,05,34,12.20
2019,07,12,05,35,12.20
2019,07,12,05,36,12.20
2019,07,12,05,37,12.20
2019,07,12,05,38,12.20
2019,07,12,05,39,12.20
2019,07,12,05,40,12.20
2019,07,12,05,41,12.20
2019,07,12,05,42,12.20
2019,07,12,05,43,12.20
2019,07,12,05,44,12.20
2019,07,12,05,45,12.20
2019,07,12,05,46,12.10
2019,07,12,05,47,12.10
2019,07,12,05,48,12.20
2019,07,12,05,49,12.20
2019,07,12,05,50,12.20
2019,07,12,05,51,12.10
2019,07,12,05,52,12.10
2019,07,12,05,53,12.10
2019,07,12,05,54,12.10
2019,07,12,05,55,12.20
2019,07,12,05,56,12.20
2019,07,12,05,57,12.20
2019,07,12,05,58,12.20
2019,07,12,05,59,12.20
2019,07,12,06,00,12.20
2019,07,12,06,01,12.20
2019,07,12,06,02,12.20
2019,07,12,06,03,12.20
2019,07,12,06,04,12.20
2019,07,12,06,05,12.20
2019,07,12,06,06,12.30
2019,07,12,06,07,12.30
2019,07,12,06,08,12.30
2019,07,12,06,09,12.30
2019,07,12,06,10,12.30
2019,07,12,06,11,12.30
2019,07,12,06,12,12.30
2019,07,12,06,13,12.40
2019,07,12,06,14,12.40
2019,07,12,06,15,12.40
2019,07,12,06,16,12.40
2019,07,12,06,17,12.40
2019,07,12,06,18,12.40
2019,07,12,06,19,12.50
2019,07,12,06,20,12.50
2019,07,12,06,21,12.50
2019,07,12,06,22,12.50
2019,07,12,06,23,12.60
2019,07,12,06,24,12.60
2019,07,12,06,25,12.60
2019,07,12,06,26,12.60
2019,07,12,06,27,12.60
2019,07,12,06,28,12.60
2019,07,12,06,29,12.70
2019,07,12,06,30,12.70
2019,07,12,06,31,12.70
2019,07,12,06,32,12.70
2019,07,12,06,33,12.70
2019,07,12,06,34,12.70
2019,07,12,06,35,12.70
2019,07,12,06,36,12.80
2019,07,12,06,37,12.80
2019,07,12,06,38,12.80
2019,07,12,06,39,12.80
2019,07,12,06,40,12.80
2019,07,12,06,41,12.90
2019,07,12,06,42,12.90
2019,07,12,06,43,12.90
2019,07,12,06,44,13.00
2019,07,12,06,45,13.00
2019,07,12,06,46,13.00
2019,07,12,06,47,13.10
2019,07,12,06,48,13.10
2019,07,12,06,49,13.10
2019,07,12,06,50,13.20
2019,07,12,06,51,13.20
2019,07,12,06,52,13.20
2019,07,12,06,53,13.30
2019,07,12,06,54,13.30
2019,07,12,06,55,13.30
2019,07,12,06,56,13.30
2019,07,12,06,57,13.30
2019,07,12,06,58,13.40
2019,07,12,06,59,13.40
2019,07,12,07,00,13.40
2019,07,12,07,01,13.40
2019,07,12,07,02,13.40
2019,07,12,07,03,13.40
2019,07,12,07,04,13.50
2019,07,12,07,05,13.50
2019,07,12,07,06,13.50
2019,07,12,07,07,13.60
2019,07,12,07,08,13.60
2019,07,12,07,09,13.60
2019,07,12,07,10,13.70
2019,07,12,07,11,13.70
2019,07,12,07,12,13.70
2019,07,12,07,13,13.70
2019,07,12,07,14,13.80
2019,07,12,07,15,13.80
2019,07,12,07,16,13.80
2019,07,12,07,17,13.90
2019,07,12,07,18,13.90
2019,07,12,07,19,14.00
2019,07,12,07,20,14.00
2019,07,12,07,21,14.10
2019,07,12,07,22,14.10
2019,07,12,07,23,14.10
2019,07,12,07,24,14.20
2019,07,12,07,25,14.20
2019,07,12,07,26,14.20
2019,07,12,07,27,14.30
2019,07,12,07,28,14.30
2019,07,12,07,29,14.30
2019,07,12,07,30,14.30
2019,07,12,07,31,14.40
2019,07,12,07,32,14.40
2019,07,12,07,33,14.50
2019,07,12,07,34,14.50
2019,07,12,07,35,14.50
2019,07,12,07,36,14.60
2019,07,12,07,37,14.60
2019,07,12,07,38,14.60
2019,07,12,07,39,14.60
2019,07,12,07,40,14.60
2019,07,12,07,41,14.70
2019,07,12,07,42,14.70
2019,07,12,07,43,14.70
2019,07,12,07,44,14.70
2019,07,12,07,45,14.80
2019,07,12,07,46,14.80
2019,07,12,07,47,14.80
2019,07,12,07,48,14.80
2019,07,12,07,49,14.90
2019,07,12,07,50,14.90
2019,07,12,07,51,14.90
2019,07,12,07,52,14.90
2019,07,12,07,53,14.90
2019,07,12,07,54,15.00
2019,07,12,07,55,15.00
2019,07,12,07,56,15.00
2019,07,12,07,57,15.10
2019,07,12,07,58,15.10
2019,07,12,07,59,15.10
2019,07,12,08,00,15.10
2019,07,12,08,01,15.20
2019,07,12,08,02,15.20
2019,07,12,08,03,15.20
2019,07,12,08,04,15.20
2019,07,12,08,05,15.30
2019,07,12,08,06,15.30
2019,07,12,08,07,15.30
2019,07,12,08,08,15.30
2019,07,12,08,09,15.30
2019,07,12,08,10,15.30
2019,07,12,08,11,15.30
2019,07,12,08,12,15.30
2019,07,12,08,13,15.30
2019,07,12,08,14,15.30
2019,07,12,08,15,15.30
2019,07,12,08,16,15.40
2019,07,12,08,17,15.40
2019,07,12,08,18,15.40
2019,07,12,08,19,15.40
2019,07,12,08,20,15.40
2019,07,12,08,21,15.40
2019,07,12,08,22,15.40
2019,07,12,08,23,15.40
2019,07,12,08,24,15.40
2019,07,12,08,25,15.40
2019,07,12,08,26,15.40
2019,07,12,08,27,15.40
2019,07,12,08,28,15.50
2019,07,12,08,29,15.50
2019,07,12,08,30,15.50
2019,07,12,08,31,15.60
2019,07,12,08,32,15.60
2019,07,12,08,33,15.60
2019,07,12,08,34,15.60
2019,07,12,08,35,15.70
2019,07,12,08,36,15.70
2019,07,12,08,37,15.80
2019,07,12,08,38,15.80
2019,07,12,08,39,15.80
2019,07,12,08,40,15.80
2019,07,12,08,41,15.90
2019,07,12,08,42,15.90
2019,07,12,08,43,16.00
2019,07,12,08,44,16.00
2019,07,12,08,45,16.00
2019,07,12,08,46,16.10
2019,07,12,08,47,16.10
2019,07,12,08,48,16.10
2019,07,12,08,49,16.10
2019,07,12,08,50,16.20
2019,07,12,08,51,16.20
2019,07,12,08,52,16.20
2019,07,12,08,53,16.30
2019,07,12,08,54,16.30
2019,07,12,08,55,16.30
2019,07,12,08,56,16.30
2019,07,12,08,57,16.40
2019,07,12,08,58,16.40
2019,07,12,08,59,16.40
2019,07,12,09,00,16.50
2019,07,12,09,01,16.50
2019,07,12,09,02,16.60
2019,07,12,09,03,16.60
2019,07,12,09,04,16.60
2019,07,12,09,05,16.60
2019,07,12,09,06,16.60
2019,07,12,09,07,16.60
2019,07,12,09,08,16.60
2019,07,12,09,09,16.70
2019,07,12,09,10,16.70
2019,07,12,09,11,16.80
2019,07,12,09,12,16.80
2019,07,12,09,13,16.90
2019,07,12,09,14,16.90
2019,07,12,09,15,17.00
2019,07,12,09,16,17.00
2019,07,12,09,17,17.00
2019,07,12,09,18,17.10
2019,07,12,09,19,17.20
2019,07,12,09,20,17.20
2019,07,12,09,21,17.30
2019,07,12,09,22,17.40
2019,07,12,09,23,17.40
2019,07,12,09,24,17.50
2019,07,12,09,25,17.50
2019,07,12,09,26,17.60
2019,07,12,09,27,17.60
2019,07,12,09,28,17.60
2019,07,12,09,29,17.60
2019,07,12,09,30,17.70
2019,07,12,09,31,17.70
2019,07,12,09,32,17.80
2019,07,12,09,33,17.80
2019,07,12,09,34,17.90
2019,07,12,09,35,18.00
2019,07,12,09,36,18.10
2019,07,12,09,37,18.20
2019,07,12,09,38,18.30
2019,07,12,09,39,18.40
2019,07,12,09,40,18.50
2019,07,12,09,41,18.60
2019,07,12,09,42,18.60
2019,07,12,09,43,18.70
2019,07,12,09,44,18.80
2019,07,12,09,45,18.90
2019,07,12,09,46,19.00
2019,07,12,09,47,19.00
2019,07,12,09,48,19.10
2019,07,12,09,49,19.00
2019,07,12,09,50,19.00
2019,07,12,09,51,18.90
2019,07,12,09,52,19.00
2019,07,12,09,53,19.00
2019,07,12,09,54,19.00
2019,07,12,09,55,19.10
2019,07,12,09,56,19.10
2019,07,12,09,57,19.10
2019,07,12,09,58,19.20
2019,07,12,09,59,19.20
2019,07,12,10,00,19.20
2019,07,12,10,01,19.20
2019,07,12,10,02,19.20
2019,07,12,10,03,19.20
2019,07,12,10,04,19.20
2019,07,12,10,05,19.30
2019,07,12,10,06,19.30
2019,07,12,10,07,19.30
2019,07,12,10,08,19.30
2019,07,12,10,09,19.30
2019,07,12,10,10,19.40
2019,07,12,10,11,19.40
2019,07,12,10,12,19.40
2019,07,12,10,13,19.40
2019,07,12,10,14,19.40
2019,07,12,10,15,19.40
2019,07,12,10,16,19.40
2019,07,12,10,17,19.40
2019,07,12,10,18,19.30
2019,07,12,10,19,19.30
2019,07,12,10,20,19.30
2019,07,12,10,21,19.30
2019,07,12,10,22,19.40
2019,07,12,10,23,19.40
2019,07,12,10,24,19.40
2019,07,12,10,25,19.50
2019,07,12,10,26,19.50
2019,07,12,10,27,19.60
2019,07,12,10,28,19.60
2019,07,12,10,29,19.60
2019,07,12,10,30,19.60
2019,07,12,10,31,19.60
2019,07,12,10,32,19.60
2019,07,12,10,33,19.60
2019,07,12,10,34,19.70
2019,07,12,10,35,19.70
2019,07,12,10,36,19.80
2019,07,12,10,37,19.80
2019,07,12,10,38,19.80
2019,07,12,10,39,19.80
2019,07,12,10,40,19.80
2019,07,12,10,41,19.90
2019,07,12,10,42,19.90
2019,07,12,10,43,20.00
2019,07,12,10,44,20.00
2019,07,12,10,45,20.10
2019,07,12,10,46,20.20
2019,07,12,10,47,20.30
2019,07,12,10,48,20.40
2019,07,12,10,49,20.50
2019,07,12,10,50,20.50
2019,07,12,10,51,20.60
2019,07,12,10,52,20.70
2019,07,12,10,53,20.90
2019,07,12,10,54,20.80
2019,07,12,10,55,20.80
2019,07,12,10,56,20.80
2019,07,12,10,57,20.80
2019,07,12,10,58,20.80
2019,07,12,10,59,20.90
2019,07,12,11,00,20.90
2019,07,12,11,01,20.90
2019,07,12,11,02,20.90
2019,07,12,11,03,20.90
2019,07,12,11,04,20.90
2019,07,12,11,05,21.00
2019,07,12,11,06,21.00
2019,07,12,11,07,21.00
2019,07,12,11,08,21.10
2019,07,12,11,09,21.10
2019,07,12,11,10,21.10
2019,07,12,11,11,21.10
2019,07,12,11,12,21.10
2019,07,12,11,13,21.10
2019,07,12,11,14,21.10
2019,07,12,11,15,21.10
2019,07,12,11,16,21.10
2019,07,12,11,17,21.10
2019,07,12,11,18,21.10
2019,07,12,11,19,21.10
2019,07,12,11,20,21.10
2019,07,12,11,21,21.20
2019,07,12,11,22,21.20
2019,07,12,11,23,21.30
2019,07,12,11,24,21.40
2019,07,12,11,25,21.50
2019,07,12,11,26,21.60
2019,07,12,11,27,21.70
2019,07,12,11,28,21.80
2019,07,12,11,29,21.90
2019,07,12,11,30,22.00
2019,07,12,11,31,22.00
2019,07,12,11,32,22.10
2019,07,12,11,33,22.20
2019,07,12,11,34,22.30
2019,07,12,11,35,22.30
2019,07,12,11,36,22.30
2019,07,12,11,37,22.40
2019,07,12,11,38,22.40
2019,07,12,11,39,22.50
2019,07,12,11,40,22.60
2019,07,12,11,41,22.70
2019,07,12,11,42,22.80
2019,07,12,11,43,22.80
2019,07,12,11,44,22.90
2019,07,12,11,45,23.00
2019,07,12,11,46,23.10
2019,07,12,11,47,23.10
2019,07,12,11,48,23.20
2019,07,12,11,49,23.20
2019,07,12,11,50,23.30
2019,07,12,11,51,23.30
2019,07,12,11,52,23.20
2019,07,12,11,53,23.20
2019,07,12,11,54,23.10
2019,07,12,11,55,23.10
2019,07,12,11,56,23.00
2019,07,12,11,57,23.00
2019,07,12,11,58,23.10
2019,07,12,11,59,23.10
2019,07,12,12,00,23.20
2019,07,12,12,01,23.20
2019,07,12,12,02,23.10
2019,07,12,12,03,23.00
2019,07,12,12,04,23.00
2019,07,12,12,05,22.90
2019,07,12,12,06,22.80
2019,07,12,12,07,22.80
2019,07,12,12,08,22.80
2019,07,12,12,09,22.70
2019,07,12,12,10,22.70
2019,07,12,12,11,22.70
2019,07,12,12,12,22.70
2019,07,12,12,13,22.70
2019,07,12,12,14,22.70
2019,07,12,12,15,22.80
2019,07,12,12,16,22.70
2019,07,12,12,17,22.70
2019,07,12,12,18,22.60
2019,07,12,12,19,22.50
2019,07,12,12,20,22.50
2019,07,12,12,21,22.40
2019,07,12,12,22,22.50
2019,07,12,12,23,22.60
2019,07,12,12,24,22.60
2019,07,12,12,25,22.70
2019,07,12,12,26,22.80
2019,07,12,12,27,22.80
2019,07,12,12,28,22.80
2019,07,12,12,29,22.80
2019,07,12,12,30,22.90
2019,07,12,12,31,22.80
2019,07,12,12,32,22.80
2019,07,12,12,33,22.80
2019,07,12,12,34,22.80
2019,07,12,12,35,22.90
2019,07,12,12,36,23.00
2019,07,12,12,37,23.00
2019,07,12,12,38,23.10
2019,07,12,12,39,23.10
2019,07,12,12,40,23.10
2019,07,12,12,41,23.10
2019,07,12,12,42,23.20
2019,07,12,12,43,23.10
2019,07,12,12,44,23.10
2019,07,12,12,45,23.10
2019,07,12,12,46,23.20
2019,07,12,12,47,23.10
2019,07,12,12,48,23.10
2019,07,12,12,49,23.10
2019,07,12,12,50,23.10
2019,07,12,12,51,23.00
2019,07,12,12,52,23.00
2019,07,12,12,53,22.90
2019,07,12,12,54,22.90
2019,07,12,12,55,22.80
2019,07,12,12,56,22.80
2019,07,12,12,57,22.70
2019,07,12,12,58,22.70
2019,07,12,12,59,22.80
2019,07,12,13,00,22.80
2019,07,12,13,01,22.90
2019,07,12,13,02,23.00
2019,07,12,13,03,23.10
2019,07,12,13,04,23.20
2019,07,12,13,05,23.30
2019,07,12,13,06,23.40
2019,07,12,13,07,23.50
2019,07,12,13,08,23.60
2019,07,12,13,09,23.70
2019,07,12,13,10,23.70
2019,07,12,13,11,23.80
2019,07,12,13,12,23.80
2019,07,12,13,13,23.80
2019,07,12,13,14,23.80
2019,07,12,13,15,23.80
2019,07,12,13,16,23.90
2019,07,12,13,17,23.80
2019,07,12,13,18,23.80
2019,07,12,13,19,23.80
2019,07,12,13,20,23.80
2019,07,12,13,21,23.80
2019,07,12,13,22,23.80
2019,07,12,13,23,23.80
2019,07,12,13,24,23.80
2019,07,12,13,25,23.90
2019,07,12,13,26,23.90
2019,07,12,13,27,24.00
2019,07,12,13,28,24.10
2019,07,12,13,29,24.20
2019,07,12,13,30,24.30
2019,07,12,13,31,24.30
2019,07,12,13,32,24.40
2019,07,12,13,33,24.40
2019,07,12,13,34,24.50
2019,07,12,13,35,24.50
2019,07,12,13,36,24.50
2019,07,12,13,37,24.40
2019,07,12,13,38,24.40
2019,07,12,13,39,24.40
2019,07,12,13,40,24.50
2019,07,12,13,41,24.50
2019,07,12,13,42,24.60
2019,07,12,13,43,24.60
2019,07,12,13,44,24.60
2019,07,12,13,45,24.50
2019,07,12,13,46,24.50
2019,07,12,13,47,24.50
2019,07,12,13,48,24.40
2019,07,12,13,49,24.40
2019,07,12,13,50,24.40
2019,07,12,13,51,24.40
2019,07,12,13,52,24.30
2019,07,12,13,53,24.30
2019,07,12,13,54,24.30
2019,07,12,13,55,24.20
2019,07,12,13,56,24.20
2019,07,12,13,57,24.20
2019,07,12,13,58,24.20
2019,07,12,13,59,24.30
2019,07,12,14,00,24.30
2019,07,12,14,01,24.30
2019,07,12,14,02,24.30
2019,07,12,14,03,24.30
2019,07,12,14,04,24.30
2019,07,12,14,05,24.30
2019,07,12,14,06,24.30
2019,07,12,14,07,24.30
2019,07,12,14,08,24.30
2019,07,12,14,09,24.40
2019,07,12,14,10,24.40
2019,07,12,14,11,24.40
2019,07,12,14,12,24.30
2019,07,12,14,13,24.30
2019,07,12,14,14,24.10
2019,07,12,14,15,24.00
2019,07,12,14,16,24.00
2019,07,12,14,17,24.00
2019,07,12,14,18,24.10
2019,07,12,14,19,24.10
2019,07,12,14,20,24.20
2019,07,12,14,21,24.30
2019,07,12,14,22,24.30
2019,07,12,14,23,24.30
2019,07,12,14,24,24.30
2019,07,12,14,25,24.30
2019,07,12,14,26,24.30
2019,07,12,14,27,24.30
2019,07,12,14,28,24.30
2019,07,12,14,29,24.20
2019,07,12,14,30,24.10
2019,07,12,14,31,24.00
2019,07,12,14,32,24.00
2019,07,12,14,33,23.90
2019,07,12,14,34,23.90
2019,07,12,14,35,23.90
2019,07,12,14,36,23.90
2019,07,12,14,37,23.90
2019,07,12,14,38,24.00
2019,07,12,14,39,24.00
2019,07,12,14,40,24.10
2019,07,12,14,41,24.10
2019,07,12,14,42,24.10
2019,07,12,14,43,24.10
2019,07,12,14,44,24.00
2019,07,12,14,45,24.00
2019,07,12,14,46,24.00
2019,07,12,14,47,24.00
2019,07,12,14,48,24.10
2019,07,12,14,49,24.10
2019,07,12,14,50,24.20
2019,07,12,14,51,24.20
2019,07,12,14,52,24.30
2019,07,12,14,53,24.30
2019,07,12,14,54,24.40
2019,07,12,14,55,24.40
2019,07,12,14,56,24.50
2019,07,12,14,57,24.50
2019,07,12,14,58,24.60
2019,07,12,14,59,24.60
2019,07,12,15,00,24.60
2019,07,12,15,01,24.60
2019,07,12,15,02,24.70
2019,07,12,15,03,24.70
2019,07,12,15,04,24.70
2019,07,12,15,05,24.70
2019,07,12,15,06,24.80
2019,07,12,15,07,24.80
2019,07,12,15,08,24.80
2019,07,12,15,09,24.80
2019,07,12,15,10,24.80
2019,07,12,15,11,24.80
2019,07,12,15,12,24.80
2019,07,12,15,13,24.90
2019,07,12,15,14,24.90
2019,07,12,15,15,24.90
2019,07,12,15,16,24.90
2019,07,12,15,17,24.90
2019,07,12,15,18,24.80
2019,07,12,15,19,24.80
2019,07,12,15,20,24.70
2019,07,12,15,21,24.80
2019,07,12,15,22,24.80
2019,07,12,15,23,24.90
2019,07,12,15,24,24.90
2019,07,12,15,25,24.90
2019,07,12,15,26,25.00
2019,07,12,15,27,25.10
2019,07,12,15,28,25.10
2019,07,12,15,29,25.20
2019,07,12,15,30,25.20
2019,07,12,15,31,25.30
2019,07,12,15,32,25.30
2019,07,12,15,33,25.30
2019,07,12,15,34,25.40
2019,07,12,15,35,25.40
2019,07,12,15,36,25.30
2019,07,12,15,37,25.30
2019,07,12,15,38,25.40
2019,07,12,15,39,25.40
2019,07,12,15,40,25.30
2019,07,12,15,41,25.30
2019,07,12,15,42,25.20
2019,07,12,15,43,25.10
2019,07,12,15,44,25.10
2019,07,12,15,45,25.10
2019,07,12,15,46,25.10
2019,07,12,15,47,25.20
2019,07,12,15,48,25.20
2019,07,12,15,49,25.30
2019,07,12,15,50,25.30
2019,07,12,15,51,25.30
2019,07,12,15,52,25.30
2019,07,12,15,53,25.40
2019,07,12,15,54,25.40
2019,07,12,15,55,25.40
2019,07,12,15,56,25.40
2019,07,12,15,57,25.40
2019,07,12,15,58,25.30
2019,07,12,15,59,25.20
2019,07,12,16,00,25.10
2019,07,12,16,01,25.10
2019,07,12,16,02,25.10
2019,07,12,16,03,25.10
2019,07,12,16,04,25.10
2019,07,12,16,05,25.20
2019,07,12,16,06,25.20
2019,07,12,16,07,25.20
2019,07,12,16,08,25.30
2019,07,12,16,09,25.30
2019,07,12,16,10,25.30
2019,07,12,16,11,25.30
2019,07,12,16,12,25.30
2019,07,12,16,13,25.30
2019,07,12,16,14,25.30
2019,07,12,16,15,25.20
2019,07,12,16,16,25.20
2019,07,12,16,17,25.10
2019,07,12,16,18,25.00
2019,07,12,16,19,24.90
2019,07,12,16,20,24.80
2019,07,12,16,21,24.60
2019,07,12,16,22,24.40
2019,07,12,16,23,24.30
2019,07,12,16,24,24.20
2019,07,12,16,25,24.10
2019,07,12,16,26,24.00
2019,07,12,16,27,23.90
2019,07,12,16,28,23.80
2019,07,12,16,29,23.70
2019,07,12,16,30,23.70
2019,07,12,16,31,23.60
2019,07,12,16,32,23.60
2019,07,12,16,33,23.60
2019,07,12,16,34,23.50
2019,07,12,16,35,23.40
2019,07,12,16,36,23.30
2019,07,12,16,37,23.30
2019,07,12,16,38,23.30
2019,07,12,16,39,23.20
2019,07,12,16,40,23.10
2019,07,12,16,41,23.10
2019,07,12,16,42,23.10
2019,07,12,16,43,23.10
2019,07,12,16,44,23.10
2019,07,12,16,45,23.10
2019,07,12,16,46,23.20
2019,07,12,16,47,23.20
2019,07,12,16,48,23.30
2019,07,12,16,49,23.30
2019,07,12,16,50,23.40
2019,07,12,16,51,23.40
2019,07,12,16,52,23.40
2019,07,12,16,53,23.40
2019,07,12,16,54,23.30
2019,07,12,16,55,23.30
2019,07,12,16,56,23.20
2019,07,12,16,57,23.10
2019,07,12,16,58,23.10
2019,07,12,16,59,23.10
2019,07,12,17,00,23.10
2019,07,12,17,01,23.10
2019,07,12,17,02,23.20
2019,07,12,17,03,23.20
2019,07,12,17,04,23.20
2019,07,12,17,05,23.20
2019,07,12,17,06,23.20
2019,07,12,17,07,23.20
2019,07,12,17,08,23.20
2019,07,12,17,09,23.30
2019,07,12,17,10,23.30
2019,07,12,17,11,23.20
2019,07,12,17,12,23.20
2019,07,12,17,13,23.20
2019,07,12,17,14,23.10
2019,07,12,17,15,23.10
2019,07,12,17,16,23.00
2019,07,12,17,17,22.90
2019,07,12,17,18,22.90
2019,07,12,17,19,22.90